FW5316 Weather Reports


Display with metric or nautical units.
time (UTC)temp
F
wind
direction
speed
MPH
gust
MPH
rain 1hr
in
rain 24hr
in
rain mn
in
humidity
%
barometer
mb
20260904170017 79 165 2.0 5.0 0.00 0.00 0.00 58 1014.6
20260904165017 78 216 2.0 7.0 0.00 0.00 0.00 59 1014.5
20260904164017 76 181 4.0 7.0 0.00 0.00 0.00 62 1014.4
20260904163017 76 106 3.0 6.0 0.00 0.00 0.00 62 1014.4
20260904161017 76 193 3.0 8.0 0.00 0.00 0.00 63 1014.2
20260904160016 75 155 2.0 6.0 0.00 0.00 0.00 64 1014.1
20260904155016 75 71 1.0 4.0 0.00 0.00 0.00 64 1014.2
20260904154037 75 51 2.0 4.0 0.00 0.00 0.00 65 1014.1
20260904153017 74 134 2.0 5.0 0.00 0.00 0.00 66 1014.1
20260904152017 74 107 1.0 3.0 0.00 0.00 0.00 66 1014.0
20260904151017 73 0.0 0.0 0.00 0.00 0.00 68 1013.9
20260904150016 72 85 1.0 4.0 0.00 0.00 0.00 68 1013.9
20260904145016 71 103 1.0 3.0 0.00 0.00 0.00 70 1013.9
20260904144016 70 0.0 0.0 0.00 0.00 0.00 71 1013.8
20260904143017 70 78 1.0 3.0 0.00 0.00 0.00 72 1013.7
20260904142016 69 76 1.0 3.0 0.00 0.00 0.00 73 1013.8
20260904141016 67 0.0 0.0 0.00 0.00 0.00 76 1013.7
20260904140036 66 0.0 0.0 0.00 0.00 0.00 77 1013.7
20260904135036 66 0.0 0.0 0.00 0.00 0.00 77 1013.6
20260904134016 66 80 0.0 7.0 0.00 0.00 0.00 77 1013.6
20260904133016 66 41 2.0 5.0 0.00 0.00 0.00 77 1013.5
20260904132016 66 0.0 0.0 0.00 0.00 0.00 77 1013.4
20260904131016 66 0.0 0.0 0.00 0.00 0.00 77 1013.3
20260904130016 66 0.0 0.0 0.00 0.00 0.00 77 1013.2
20260904125036 66 0.0 0.0 0.00 0.00 0.00 77 1013.2
20260904124016 66 0.0 0.0 0.00 0.00 0.00 77 1013.2
20260904123016 66 0.0 0.0 0.00 0.00 0.00 77 1013.1
20260904122036 66 0.0 0.0 0.00 0.00 0.00 77 1013.1
20260904121037 67 0.0 0.0 0.00 0.00 0.00 76 1013.1
20260904120037 67 0.0 0.0 0.00 0.00 0.00 76 1013.1
20260904115016 67 0.0 0.0 0.00 0.00 0.00 76 1013.2
20260904114036 67 0.0 0.0 0.00 0.00 0.00 76 1013.2
20260904113016 67 0.0 0.0 0.00 0.00 0.00 76 1013.2
20260904112036 67 0.0 0.0 0.00 0.00 0.00 76 1013.3
20260904111016 67 0.0 0.0 0.00 0.00 0.00 77 1013.3
20260904110016 67 0.0 0.0 0.00 0.00 0.00 77 1013.2
20260904105016 67 0.0 0.0 0.00 0.00 0.00 77 1013.1
20260904104016 67 0.0 1.0 0.00 0.00 0.00 77 1013.1
20260904103016 67 319 0.0 3.0 0.00 0.00 0.00 77 1013.1
20260904102016 67 0.0 0.0 0.00 0.00 0.00 77 1013.1
20260904101016 67 0.0 0.0 0.00 0.00 0.00 77 1013.1
20260904100016 67 0.0 0.0 0.00 0.00 0.00 77 1013.2
20260904095036 67 0.0 3.0 0.00 0.00 0.00 77 1013.1
20260904094016 67 317 0.0 3.0 0.00 0.00 0.00 78 1013.1
20260904093016 67 315 0.0 3.0 0.00 0.00 0.00 78 1013.1
20260904092036 67 0.0 0.0 0.00 0.00 0.00 79 1013.1
20260904091016 67 0.0 0.0 0.00 0.00 0.00 79 1013.2
20260904090036 67 0.0 0.0 0.00 0.00 0.00 79 1013.2
20260904085036 67 0.0 0.0 0.00 0.00 0.00 79 1013.2
20260904084016 67 0.0 0.0 0.00 0.00 0.00 79 1013.3
20260904083056 66 0.0 0.0 0.00 0.00 0.00 80 1013.3
20260904082015 66 0.0 0.0 0.00 0.00 0.00 80 1013.4
20260904081016 66 0.0 0.0 0.00 0.00 0.00 81 1013.5
20260904080016 66 0.0 0.0 0.00 0.00 0.00 81 1013.5
20260904075016 66 0.0 0.0 0.00 0.00 0.00 81 1013.6
20260904074015 66 0.0 0.0 0.00 0.00 0.00 81 1013.7
20260904073016 66 0.0 0.0 0.00 0.00 0.00 80 1013.6
20260904072016 66 0.0 0.0 0.00 0.00 0.00 80 1013.6
20260904071016 66 0.0 0.0 0.00 0.00 0.00 79 1013.6
20260904070015 67 0.0 0.0 0.00 0.00 0.00 79 1013.5
20260904065016 67 0.0 0.0 0.00 0.00 0.00 79 1013.6
20260904064016 67 320 0.0 4.0 0.00 0.00 0.00 79 1013.5
20260904063016 67 326 2.0 5.0 0.00 0.00 0.00 79 1013.5
20260904062017 67 307 2.0 5.0 0.00 0.00 0.00 78 1013.5
20260904061016 67 314 3.0 5.0 0.00 0.00 0.00 78 1013.5
20260904060017 67 317 2.0 3.0 0.00 0.00 0.00 78 1013.5
20260904055016 67 317 1.0 4.0 0.00 0.00 0.00 77 1013.5
20260904054017 68 319 0.0 2.0 0.00 0.00 0.00 77 1013.5
20260904053037 68 0.0 0.0 0.00 0.00 0.00 77 1013.5
20260904052017 68 0.0 4.0 0.00 0.00 0.00 76 1013.5
20260904051016 68 0.0 0.0 0.00 0.00 0.00 76 1013.6
20260904050019 68 321 0.0 4.0 0.00 0.00 0.00 76 1013.5
20260904045016 69 0.0 0.0 0.00 0.00 0.00 76 1013.5
20260904044018 69 332 1.0 3.0 0.00 0.00 0.00 76 1013.5
20260904043016 69 322 3.0 5.0 0.00 0.00 0.00 75 1013.6
20260904042036 69 301 1.0 5.0 0.00 0.00 0.00 75 1013.6
20260904041036 69 312 1.0 4.0 0.00 0.00 0.00 75 1013.5
20260904040016 69 0.0 0.0 0.00 0.00 0.00 74 1013.4
20260904035016 69 0.0 3.0 0.00 0.00 0.00 74 1013.4
20260904034016 69 306 2.0 4.0 0.00 0.00 0.00 74 1013.3
20260904033016 69 307 2.0 4.0 0.00 0.00 0.00 74 1013.2
20260904032016 70 324 2.0 4.0 0.00 0.00 0.00 74 1013.1
20260904031036 70 326 1.0 5.0 0.00 0.00 0.00 73 1013.0
20260904030016 70 304 3.0 5.0 0.00 0.00 0.00 73 1012.9
20260904025016 70 297 1.0 7.0 0.00 0.00 0.00 73 1012.9
20260904024016 71 299 3.0 8.0 0.00 0.00 0.00 73 1012.8
20260904023036 71 284 3.0 8.0 0.00 0.00 0.00 73 1012.8
20260904022016 72 264 3.0 6.0 0.00 0.00 0.00 72 1012.8
20260904021036 72 270 3.0 7.0 0.00 0.00 0.00 71 1012.8
20260904020036 73 298 3.0 8.0 0.00 0.00 0.00 70 1012.8
20260904015016 73 249 1.0 6.0 0.00 0.00 0.00 69 1012.9
20260904014016 73 282 4.0 8.0 0.00 0.00 0.00 69 1012.9
20260904013016 74 269 3.0 6.0 0.00 0.00 0.00 67 1013.0
20260904012016 74 250 3.0 7.0 0.00 0.00 0.00 67 1013.0
20260904011016 74 256 3.0 9.0 0.00 0.00 0.00 67 1013.0
20260904010037 75 266 3.0 9.0 0.00 0.00 0.00 66 1013.0
20260904005016 75 294 5.0 10.0 0.00 0.00 0.00 66 1013.1
20260904004015 75 302 5.0 10.0 0.00 0.00 0.00 65 1013.1
20260904003015 76 299 7.0 13.0 0.00 0.00 0.00 65 1013.1
20260904002016 76 293 6.0 12.0 0.00 0.00 0.00 65 1013.0
20260904001016 77 276 5.0 13.0 0.00 0.00 0.00 64 1012.9
20260904000017 77 298 7.0 12.0 0.00 0.00 0.00 63 1013.0
20260903235016 78 254 5.0 14.0 0.00 0.00 0.00 63 1013.1
20260903234016 78 278 7.0 14.0 0.00 0.00 0.00 63 1013.1
20260903233056 78 226 4.0 14.0 0.00 0.00 0.00 61 1013.2
20260903232016 79 247 5.0 11.0 0.00 0.00 0.00 60 1013.2
20260903231056 79 233 5.0 12.0 0.00 0.00 0.00 59 1013.3
20260903230016 79 266 5.0 11.0 0.00 0.00 0.00 59 1013.3
20260903225036 80 238 4.0 11.0 0.00 0.00 0.00 58 1013.4
20260903224015 80 271 5.0 14.0 0.00 0.00 0.00 57 1013.5
20260903223037 80 242 5.0 11.0 0.00 0.00 0.00 58 1013.7
20260903222016 80 230 5.0 12.0 0.00 0.00 0.00 59 1013.8
20260903221015 81 220 7.0 16.0 0.00 0.00 0.00 57 1013.8
20260903220016 83 227 8.0 14.0 0.00 0.00 0.00 55 1013.8
20260903215015 83 266 6.0 13.0 0.00 0.00 0.00 55 1013.9
20260903214036 83 253 5.0 11.0 0.00 0.00 0.00 53 1013.9
20260903213016 83 233 6.0 16.0 0.00 0.00 0.00 53 1013.9
20260903212036 84 239 5.0 12.0 0.00 0.00 0.00 49 1014.0
20260903211036 84 248 4.0 9.0 0.00 0.00 0.00 47 1014.0
20260903210016 84 213 5.0 11.0 0.00 0.00 0.00 49 1014.0
20260903205015 84 230 5.0 11.0 0.00 0.00 0.00 52 1013.9
20260903204015 85 251 5.0 12.0 0.00 0.00 0.00 53 1013.9
20260903203015 84 224 5.0 11.0 0.00 0.00 0.00 53 1014.0
20260903202015 84 248 5.0 10.0 0.00 0.00 0.00 54 1014.0
20260903201055 84 260 5.0 9.0 0.00 0.00 0.00 54 1014.1
20260903200015 85 221 6.0 11.0 0.00 0.00 0.00 53 1014.1
20260903195015 85 244 4.0 12.0 0.00 0.00 0.00 53 1014.2
20260903194015 85 240 4.0 11.0 0.00 0.00 0.00 53 1014.3
20260903193015 84 254 5.0 13.0 0.00 0.00 0.00 53 1014.3
20260903192015 83 236 4.0 12.0 0.00 0.00 0.00 55 1014.3
20260903191036 83 242 5.0 13.0 0.00 0.00 0.00 56 1014.4
20260903190015 82 220 6.0 14.0 0.00 0.00 0.00 58 1014.6
20260903185015 81 216 8.0 16.0 0.00 0.00 0.00 59 1014.7
20260903184015 82 197 9.0 14.0 0.00 0.00 0.00 58 1015.0
20260903183015 83 206 7.0 13.0 0.00 0.00 0.00 56 1015.1
20260903182015 83 206 7.0 12.0 0.00 0.00 0.00 55 1015.2
20260903181015 84 192 6.0 13.0 0.00 0.00 0.00 53 1015.2
20260903180015 84 200 5.0 10.0 0.00 0.00 0.00 54 1015.1
20260903175035 84 216 5.0 11.0 0.00 0.00 0.00 52 1015.2
20260903174015 84 235 4.0 12.0 0.00 0.00 0.00 52 1015.2
20260903173015 83 260 2.0 6.0 0.00 0.00 0.00 51 1015.3
20260903172036 81 179 4.0 7.0 0.00 0.00 0.00 55 1015.2
20260903171015 80 114 2.0 4.0 0.00 0.00 0.00 56 1015.2